GFSNIL_prec_precacc24_066.txt.gz
Total_Precipitation_Accumulation
0.13 0.07 0.06 0.03 0.04 0.03 0.02 0.01 0.02 0.06 0.07 0.04 0.02 0.02 0.02 0.02 0.01 0.02 0.04 0.04 0.04 0.02
0.13 0.10 0.08 0.07 0.05 0.04 0.07 0.09 0.08 0.05 0.06 0.07 0.07 0.08 0.04 0.01 0.02 0.03 0.03 0.02 0.03 0.03
0.13 0.13 0.13 0.13 0.08 0.08 0.09 0.09 0.08 0.10 0.14 0.14 0.12 0.04 0.00 0.00 0.00 0.01 0.01 0.02 0.02 0.01
0.10 0.14 0.20 0.21 0.16 0.16 0.15 0.15 0.20 0.23 0.19 0.14 0.08 0.03 0.01 0.01 0.01 0.00 0.01 0.02 0.01 0.01
0.13 0.16 0.19 0.18 0.15 0.16 0.23 0.23 0.21 0.25 0.22 0.11 0.04 0.07 0.07 0.03 0.01 0.02 0.03 0.01 0.00 0.00
0.20 0.14 0.13 0.12 0.11 0.14 0.29 0.34 0.31 0.20 0.16 0.20 0.22 0.13 0.03 0.01 0.01 0.01 0.00 0.00 0.00 0.00
0.17 0.15 0.16 0.20 0.33 0.44 0.34 0.18 0.20 0.23 0.23 0.13 0.03 0.00 0.01 0.01 0.00 0.00 0.00 0.00 0.00 0.00
0.12 0.16 0.18 0.15 0.11 0.10 0.14 0.14 0.07 0.02 0.02 0.01 0.00 0.00 0.00 0.00 0.00 0.00 0.00 0.00 0.00 0.00
0.08 0.06 0.06 0.06 0.06 0.04 0.01 0.01 0.03 0.03 0.01 0.00 0.00 0.00 0.00 0.00 0.00 0.00 0.00 0.00 0.00 0.00
0.01 0.01 0.01 0.02 0.02 0.02 0.07 0.09 0.05 0.01 0.00 0.00 0.00 0.00 0.00 0.00 0.00 0.00 0.00 0.00 0.00 0.00
0.00 0.00 0.02 0.04 0.08 0.11 0.06 0.01 0.00 0.00 0.00 0.00 0.00 0.00 0.00 0.00 0.00 0.00 0.00 0.00 0.00 0.00
0.01 0.05 0.08 0.10 0.06 0.01 0.00 0.00 0.00 0.00 0.00 0.00 0.01 0.00 0.00 0.00 0.00 0.00 0.00 0.00 0.00 0.00
0.08 0.08 0.04 0.00 0.00 0.00 0.00 0.00 0.00 0.00 0.00 0.00 0.00 0.00 0.00 0.00 0.00 0.00 0.00 0.00 0.00 0.00
0.01 0.00 0.00 0.00 0.00 0.00 0.00 0.00 0.00 0.00 0.00 0.00 0.00 0.00 0.00 0.00 0.00 0.00 0.00 0.00 0.00 0.00

GFSNIL_prec_precacc24_072.txt.gz
Total_Precipitation_Accumulation
0.13 0.08 0.12 0.05 0.07 0.06 0.05 0.05 0.05 0.09 0.10 0.07 0.05 0.05 0.07 0.06 0.02 0.00 0.01 0.01 0.01 0.01
0.13 0.11 0.13 0.09 0.07 0.10 0.08 0.11 0.11 0.08 0.10 0.13 0.16 0.20 0.17 0.14 0.14 0.10 0.06 0.04 0.02 0.01
0.13 0.14 0.14 0.19 0.26 0.18 0.14 0.15 0.15 0.21 0.34 0.38 0.36 0.31 0.24 0.15 0.12 0.09 0.09 0.06 0.04 0.01
0.10 0.17 0.25 0.29 0.27 0.21 0.26 0.30 0.33 0.39 0.34 0.30 0.29 0.25 0.22 0.24 0.25 0.22 0.13 0.06 0.03 0.00
0.18 0.25 0.29 0.28 0.22 0.24 0.30 0.26 0.24 0.36 0.44 0.41 0.35 0.35 0.38 0.32 0.18 0.09 0.03 0.00 0.00 0.00
0.41 0.25 0.23 0.20 0.14 0.18 0.37 0.49 0.54 0.49 0.40 0.40 0.37 0.23 0.10 0.03 0.01 0.00 0.00 0.00 0.00 0.00
0.26 0.24 0.22 0.25 0.38 0.49 0.42 0.28 0.26 0.27 0.25 0.15 0.05 0.01 0.01 0.00 0.00 0.00 0.00 0.00 0.00 0.00
0.23 0.27 0.28 0.24 0.15 0.11 0.15 0.14 0.07 0.03 0.03 0.02 0.00 0.00 0.00 0.00 0.00 0.00 0.00 0.00 0.00 0.00
0.18 0.15 0.11 0.08 0.07 0.04 0.01 0.01 0.03 0.03 0.01 0.00 0.00 0.00 0.00 0.00 0.00 0.00 0.00 0.00 0.00 0.00
0.06 0.05 0.03 0.02 0.02 0.02 0.07 0.09 0.05 0.01 0.00 0.00 0.00 0.00 0.00 0.00 0.00 0.00 0.00 0.00 0.00 0.00
0.01 0.01 0.02 0.04 0.08 0.11 0.06 0.01 0.00 0.00 0.00 0.00 0.00 0.00 0.00 0.00 0.00 0.00 0.00 0.00 0.00 0.00
0.01 0.05 0.08 0.10 0.06 0.01 0.00 0.00 0.00 0.00 0.00 0.00 0.00 0.00 0.00 0.00 0.00 0.00 0.00 0.00 0.00 0.00
0.08 0.08 0.04 0.00 0.00 0.00 0.00 0.00 0.00 0.00 0.00 0.00 0.00 0.00 0.00 0.00 0.00 0.00 0.00 0.00 0.00 0.00
0.01 0.00 0.00 0.00 0.00 0.00 0.00 0.00 0.00 0.00 0.00 0.00 0.00 0.00 0.00 0.00 0.00 0.00 0.00 0.00 0.00 0.00

GFSNIL_prec_precacc24_075.txt.gz
Total_Precipitation_Accumulation
0.13 0.09 0.13 0.06 0.11 0.09 0.09 0.13 0.18 0.14 0.10 0.07 0.06 0.06 0.09 0.12 0.14 0.19 0.22 0.21 0.15 0.09
0.17 0.11 0.13 0.09 0.10 0.24 0.23 0.18 0.18 0.12 0.12 0.14 0.16 0.20 0.22 0.29 0.37 0.33 0.27 0.19 0.13 0.12
0.15 0.17 0.15 0.19 0.35 0.49 0.26 0.16 0.18 0.24 0.36 0.39 0.37 0.32 0.28 0.24 0.17 0.13 0.15 0.15 0.15 0.13
0.10 0.18 0.30 0.33 0.56 0.40 0.37 0.39 0.39 0.44 0.37 0.30 0.29 0.26 0.22 0.25 0.30 0.30 0.22 0.14 0.07 0.02
0.32 0.50 0.67 0.61 0.53 0.45 0.41 0.35 0.33 0.42 0.46 0.41 0.35 0.35 0.38 0.32 0.19 0.09 0.03 0.00 0.00 0.00
0.67 0.52 0.64 0.51 0.34 0.28 0.46 0.59 0.60 0.50 0.40 0.40 0.37 0.23 0.10 0.03 0.01 0.00 0.00 0.00 0.00 0.00
0.36 0.47 0.32 0.30 0.49 0.62 0.50 0.32 0.27 0.28 0.25 0.15 0.05 0.01 0.01 0.00 0.00 0.00 0.00 0.00 0.00 0.00
0.30 0.39 0.33 0.27 0.19 0.13 0.16 0.16 0.08 0.03 0.03 0.02 0.00 0.00 0.00 0.00 0.00 0.00 0.00 0.00 0.00 0.00
0.22 0.19 0.16 0.12 0.10 0.07 0.02 0.02 0.04 0.03 0.01 0.00 0.00 0.00 0.00 0.00 0.00 0.00 0.00 0.00 0.00 0.00
0.09 0.08 0.07 0.04 0.03 0.03 0.07 0.10 0.05 0.01 0.00 0.00 0.00 0.00 0.00 0.00 0.00 0.00 0.00 0.00 0.00 0.00
0.02 0.01 0.02 0.04 0.08 0.11 0.06 0.01 0.00 0.00 0.00 0.00 0.00 0.00 0.00 0.00 0.00 0.00 0.00 0.00 0.00 0.00
0.01 0.05 0.08 0.10 0.06 0.01 0.00 0.00 0.00 0.00 0.00 0.00 0.00 0.00 0.00 0.00 0.00 0.00 0.00 0.00 0.00 0.00
0.07 0.07 0.04 0.00 0.00 0.00 0.00 0.00 0.00 0.00 0.00 0.00 0.00 0.00 0.00 0.00 0.00 0.00 0.00 0.00 0.00 0.00
0.01 0.00 0.00 0.00 0.00 0.00 0.00 0.00 0.00 0.00 0.00 0.00 0.00 0.00 0.00 0.00 0.00 0.00 0.00 0.00 0.00 0.00

GFSNIL_prec_precacc24_081.txt.gz
Total_Precipitation_Accumulation
0.13 0.10 0.13 0.06 0.11 0.09 0.09 0.13 0.27 0.12 0.12 0.17 0.15 0.20 0.20 0.17 0.16 0.23 0.36 0.43 0.38 0.28
0.18 0.12 0.15 0.14 0.10 0.23 0.21 0.12 0.16 0.23 0.26 0.33 0.34 0.37 0.35 0.40 0.46 0.42 0.35 0.28 0.23 0.19
0.17 0.21 0.20 0.27 0.39 0.51 0.35 0.26 0.34 0.50 0.64 0.69 0.70 0.63 0.49 0.40 0.28 0.16 0.16 0.17 0.19 0.15
0.11 0.25 0.45 0.49 0.78 0.62 0.58 0.78 1.05 1.24 1.16 0.99 0.79 0.66 0.61 0.43 0.32 0.30 0.22 0.15 0.08 0.03
0.40 0.65 0.95 0.92 1.07 1.31 1.56 1.43 1.39 1.20 0.96 0.76 0.55 0.48 0.47 0.36 0.19 0.09 0.03 0.01 0.01 0.01
0.84 0.72 0.90 0.82 0.77 0.85 0.90 0.87 0.80 0.63 0.47 0.45 0.41 0.28 0.13 0.04 0.02 0.01 0.01 0.01 0.01 0.00
0.42 0.60 0.54 0.63 0.80 0.98 0.89 0.61 0.44 0.37 0.30 0.18 0.09 0.07 0.03 0.00 0.00 0.00 0.00 0.00 0.00 0.00
0.31 0.43 0.44 0.36 0.32 0.27 0.28 0.24 0.20 0.12 0.08 0.05 0.04 0.03 0.02 0.00 0.00 0.01 0.01 0.00 0.00 0.00
0.25 0.23 0.21 0.20 0.16 0.14 0.11 0.07 0.07 0.07 0.04 0.03 0.02 0.06 0.04 0.02 0.00 0.01 0.00 0.00 0.00 0.00
0.12 0.11 0.10 0.08 0.06 0.06 0.10 0.12 0.08 0.04 0.03 0.04 0.04 0.08 0.04 0.02 0.00 0.00 0.00 0.00 0.00 0.00
0.03 0.02 0.02 0.02 0.07 0.12 0.08 0.03 0.02 0.03 0.03 0.03 0.03 0.03 0.01 0.00 0.00 0.00 0.00 0.00 0.00 0.00
0.01 0.01 0.05 0.09 0.07 0.02 0.01 0.02 0.01 0.01 0.01 0.01 0.01 0.01 0.00 0.00 0.00 0.00 0.00 0.00 0.00 0.00
0.04 0.06 0.06 0.02 0.02 0.01 0.01 0.01 0.00 0.00 0.00 0.00 0.00 0.00 0.00 0.00 0.00 0.00 0.00 0.00 0.00 0.00
0.03 0.02 0.02 0.01 0.01 0.00 0.00 0.00 0.00 0.00 0.00 0.00 0.00 0.00 0.00 0.00 0.00 0.00 0.00 0.00 0.00 0.00

GFSNIL_prec_precacc24_087.txt.gz
Total_Precipitation_Accumulation
0.02 0.03 0.11 0.05 0.10 0.09 0.09 0.13 0.27 0.11 0.08 0.14 0.12 0.19 0.23 0.24 0.25 0.34 0.48 0.54 0.48 0.41
0.09 0.03 0.08 0.11 0.09 0.23 0.20 0.12 0.15 0.20 0.21 0.27 0.29 0.36 0.40 0.48 0.59 0.62 0.61 0.55 0.58 0.61
0.10 0.15 0.14 0.20 0.37 0.51 0.35 0.28 0.32 0.45 0.55 0.60 0.69 0.68 0.69 0.76 0.78 0.70 0.63 0.60 0.59 0.47
0.06 0.15 0.30 0.37 0.74 0.60 0.56 0.74 0.98 1.21 1.22 1.09 0.99 0.98 1.02 0.94 0.80 0.62 0.45 0.31 0.20 0.12
0.32 0.56 0.84 0.85 1.02 1.24 1.44 1.35 1.43 1.34 1.17 1.00 0.85 0.78 0.77 0.56 0.30 0.17 0.09 0.07 0.05 0.05
0.77 0.68 0.86 0.78 0.71 0.83 0.87 0.92 0.95 0.89 0.78 0.71 0.72 0.65 0.48 0.17 0.10 0.11 0.09 0.09 0.08 0.06
0.34 0.54 0.46 0.52 0.64 0.87 0.93 0.68 0.49 0.42 0.41 0.34 0.22 0.15 0.11 0.09 0.08 0.06 0.03 0.04 0.03 0.03
0.22 0.29 0.29 0.25 0.26 0.25 0.24 0.22 0.30 0.24 0.19 0.15 0.10 0.10 0.08 0.06 0.07 0.07 0.05 0.05 0.06 0.09
0.18 0.18 0.17 0.16 0.14 0.16 0.16 0.12 0.12 0.12 0.10 0.08 0.07 0.19 0.13 0.09 0.04 0.06 0.07 0.10 0.14 0.16
0.11 0.10 0.10 0.08 0.08 0.08 0.08 0.07 0.07 0.06 0.06 0.07 0.09 0.21 0.12 0.11 0.07 0.09 0.12 0.12 0.08 0.05
0.03 0.02 0.02 0.03 0.04 0.03 0.03 0.02 0.03 0.06 0.08 0.09 0.14 0.18 0.09 0.10 0.04 0.06 0.07 0.05 0.03 0.02
0.02 0.01 0.02 0.02 0.03 0.02 0.03 0.05 0.05 0.06 0.07 0.07 0.10 0.15 0.09 0.07 0.02 0.04 0.05 0.03 0.02 0.02
0.02 0.02 0.03 0.03 0.04 0.05 0.06 0.08 0.08 0.09 0.09 0.12 0.05 0.11 0.05 0.02 0.00 0.00 0.01 0.01 0.01 0.01
0.02 0.02 0.03 0.04 0.05 0.06 0.06 0.07 0.06 0.05 0.05 0.04 0.03 0.04 0.03 0.01 0.00 0.00 0.00 0.00 0.00 0.00

GFSNIL_prec_precacc24_093.txt.gz
Total_Precipitation_Accumulation
0.00 0.02 0.04 0.02 0.06 0.05 0.05 0.08 0.24 0.09 0.06 0.13 0.12 0.20 0.30 0.28 0.29 0.38 0.52 0.56 0.49 0.43
0.05 0.02 0.06 0.07 0.05 0.19 0.17 0.09 0.12 0.17 0.18 0.25 0.27 0.31 0.38 0.46 0.54 0.59 0.63 0.58 0.61 0.66
0.04 0.08 0.07 0.13 0.30 0.44 0.30 0.22 0.26 0.36 0.43 0.52 0.61 0.60 0.60 0.67 0.73 0.70 0.64 0.63 0.62 0.51
0.02 0.11 0.24 0.27 0.64 0.51 0.47 0.63 0.86 1.00 1.05 0.95 0.83 0.82 0.91 0.92 0.87 0.73 0.53 0.38 0.28 0.21
0.28 0.51 0.78 0.77 0.95 1.19 1.40 1.30 1.28 1.00 0.75 0.62 0.58 0.59 0.68 0.63 0.54 0.44 0.27 0.16 0.12 0.12
0.70 0.60 0.80 0.75 0.70 0.77 0.61 0.48 0.44 0.43 0.44 0.41 0.43 0.48 0.47 0.37 0.30 0.22 0.15 0.12 0.11 0.09
0.29 0.49 0.41 0.48 0.51 0.59 0.59 0.45 0.34 0.29 0.25 0.22 0.18 0.15 0.12 0.11 0.11 0.09 0.09 0.10 0.10 0.10
0.21 0.28 0.27 0.25 0.25 0.23 0.22 0.20 0.29 0.23 0.19 0.15 0.11 0.12 0.13 0.12 0.11 0.11 0.12 0.14 0.15 0.19
0.16 0.17 0.16 0.16 0.14 0.16 0.17 0.13 0.13 0.13 0.12 0.10 0.09 0.25 0.20 0.16 0.08 0.15 0.19 0.20 0.22 0.28
0.10 0.10 0.10 0.08 0.08 0.08 0.08 0.07 0.07 0.08 0.08 0.10 0.12 0.33 0.18 0.17 0.09 0.12 0.16 0.17 0.16 0.16
0.03 0.02 0.01 0.03 0.05 0.04 0.04 0.04 0.05 0.09 0.11 0.12 0.22 0.28 0.13 0.14 0.06 0.09 0.15 0.16 0.16 0.16
0.02 0.01 0.02 0.03 0.04 0.04 0.05 0.07 0.06 0.08 0.10 0.10 0.14 0.20 0.11 0.08 0.02 0.06 0.10 0.10 0.10 0.10
0.02 0.02 0.03 0.03 0.04 0.05 0.07 0.09 0.09 0.10 0.10 0.16 0.08 0.19 0.09 0.06 0.01 0.03 0.05 0.05 0.06 0.09
0.02 0.02 0.03 0.04 0.05 0.07 0.07 0.07 0.06 0.05 0.05 0.05 0.06 0.09 0.06 0.03 0.01 0.01 0.01 0.01 0.01 0.01

GFSNIL_prec_precacc24_096.txt.gz
Total_Precipitation_Accumulation
0.00 0.02 0.01 0.00 0.03 0.03 0.03 0.08 0.24 0.08 0.06 0.14 0.14 0.22 0.27 0.26 0.28 0.39 0.53 0.58 0.51 0.44
0.05 0.01 0.02 0.05 0.03 0.15 0.17 0.09 0.12 0.17 0.17 0.22 0.20 0.21 0.31 0.41 0.51 0.58 0.64 0.56 0.62 0.69
0.04 0.07 0.06 0.09 0.14 0.37 0.27 0.21 0.25 0.34 0.34 0.33 0.38 0.39 0.48 0.65 0.70 0.64 0.57 0.58 0.60 0.49
0.01 0.08 0.20 0.22 0.57 0.48 0.41 0.59 0.85 0.98 0.95 0.83 0.72 0.74 0.82 0.76 0.67 0.56 0.43 0.32 0.25 0.20
0.23 0.42 0.70 0.68 0.89 1.11 1.35 1.28 1.28 1.00 0.74 0.59 0.50 0.45 0.46 0.45 0.44 0.38 0.25 0.15 0.13 0.12
0.50 0.53 0.74 0.68 0.67 0.74 0.59 0.47 0.43 0.43 0.42 0.36 0.36 0.44 0.46 0.36 0.29 0.22 0.15 0.13 0.12 0.10
0.22 0.42 0.36 0.43 0.47 0.56 0.58 0.44 0.34 0.29 0.25 0.22 0.18 0.15 0.12 0.11 0.11 0.11 0.11 0.14 0.14 0.13
0.11 0.17 0.19 0.16 0.21 0.22 0.21 0.20 0.29 0.23 0.20 0.15 0.12 0.13 0.13 0.13 0.12 0.13 0.15 0.18 0.21 0.27
0.07 0.09 0.11 0.14 0.13 0.16 0.17 0.13 0.13 0.13 0.12 0.11 0.10 0.25 0.20 0.16 0.08 0.16 0.24 0.30 0.32 0.37
0.06 0.06 0.08 0.07 0.07 0.08 0.08 0.07 0.07 0.08 0.08 0.10 0.12 0.34 0.18 0.19 0.11 0.20 0.25 0.24 0.20 0.19
0.02 0.02 0.01 0.03 0.05 0.04 0.04 0.04 0.05 0.08 0.11 0.13 0.23 0.30 0.15 0.16 0.07 0.13 0.20 0.20 0.19 0.18
0.02 0.01 0.02 0.03 0.04 0.04 0.05 0.07 0.06 0.08 0.11 0.11 0.16 0.25 0.14 0.10 0.03 0.08 0.11 0.11 0.12 0.12
0.02 0.02 0.03 0.03 0.04 0.05 0.07 0.10 0.10 0.12 0.12 0.20 0.10 0.24 0.11 0.07 0.01 0.03 0.05 0.05 0.08 0.12
0.02 0.02 0.03 0.04 0.05 0.07 0.08 0.09 0.09 0.08 0.08 0.07 0.08 0.11 0.08 0.03 0.01 0.01 0.01 0.01 0.01 0.01

GFSNIL_prec_precacc24_099.txt.gz
Total_Precipitation_Accumulation
0.00 0.00 0.00 0.00 0.00 0.00 0.01 0.02 0.12 0.03 0.05 0.14 0.15 0.21 0.26 0.21 0.18 0.22 0.32 0.39 0.38 0.37
0.01 0.00 0.02 0.05 0.00 0.00 0.02 0.01 0.05 0.13 0.15 0.21 0.20 0.21 0.27 0.27 0.30 0.37 0.45 0.42 0.53 0.59
0.02 0.03 0.05 0.09 0.05 0.06 0.15 0.20 0.22 0.31 0.32 0.33 0.38 0.39 0.45 0.57 0.66 0.62 0.51 0.50 0.48 0.38
0.01 0.07 0.16 0.17 0.28 0.29 0.31 0.49 0.79 0.94 0.93 0.82 0.71 0.74 0.82 0.75 0.63 0.48 0.34 0.24 0.21 0.19
0.09 0.17 0.31 0.35 0.58 0.91 1.24 1.18 1.19 0.94 0.72 0.59 0.50 0.45 0.47 0.45 0.44 0.38 0.25 0.16 0.14 0.12
0.24 0.26 0.33 0.37 0.46 0.64 0.50 0.37 0.38 0.42 0.42 0.36 0.36 0.44 0.46 0.36 0.30 0.22 0.15 0.14 0.17 0.13
0.12 0.18 0.26 0.38 0.35 0.43 0.50 0.41 0.33 0.28 0.25 0.21 0.18 0.15 0.12 0.11 0.11 0.11 0.14 0.17 0.16 0.14
0.05 0.06 0.14 0.14 0.17 0.20 0.19 0.18 0.28 0.23 0.19 0.15 0.12 0.13 0.13 0.13 0.12 0.13 0.16 0.18 0.21 0.28
0.03 0.05 0.07 0.10 0.10 0.13 0.16 0.12 0.13 0.13 0.12 0.11 0.10 0.25 0.20 0.16 0.08 0.16 0.25 0.31 0.33 0.40
0.02 0.03 0.04 0.05 0.07 0.07 0.08 0.07 0.08 0.08 0.08 0.10 0.12 0.34 0.19 0.20 0.11 0.21 0.29 0.29 0.25 0.25
0.01 0.01 0.01 0.03 0.05 0.04 0.04 0.04 0.05 0.09 0.11 0.13 0.25 0.33 0.16 0.18 0.08 0.17 0.26 0.26 0.25 0.24
0.02 0.01 0.02 0.03 0.04 0.04 0.05 0.08 0.08 0.10 0.13 0.13 0.18 0.29 0.16 0.12 0.05 0.15 0.18 0.17 0.18 0.18
0.04 0.02 0.03 0.03 0.04 0.05 0.07 0.11 0.12 0.15 0.17 0.26 0.14 0.31 0.16 0.11 0.03 0.08 0.10 0.09 0.12 0.17
0.05 0.04 0.04 0.04 0.05 0.07 0.09 0.11 0.12 0.12 0.13 0.13 0.13 0.17 0.14 0.09 0.03 0.03 0.04 0.03 0.02 0.01

GFSNIL_prec_precacc24_102.txt.gz
Total_Precipitation_Accumulation
0.00 0.00 0.00 0.00 0.00 0.01 0.04 0.09 0.06 0.02 0.02 0.09 0.14 0.26 0.30 0.24 0.18 0.19 0.20 0.19 0.17 0.25
0.00 0.00 0.00 0.00 0.00 0.01 0.05 0.10 0.10 0.06 0.08 0.14 0.18 0.22 0.28 0.27 0.27 0.29 0.38 0.36 0.45 0.54
0.00 0.00 0.00 0.00 0.02 0.05 0.14 0.16 0.12 0.10 0.14 0.20 0.29 0.36 0.45 0.57 0.65 0.60 0.51 0.49 0.47 0.37
0.01 0.00 0.00 0.01 0.05 0.10 0.11 0.15 0.28 0.56 0.71 0.65 0.63 0.73 0.82 0.75 0.63 0.48 0.34 0.25 0.21 0.18
0.08 0.07 0.05 0.03 0.07 0.09 0.13 0.32 0.68 0.69 0.55 0.49 0.48 0.45 0.47 0.45 0.44 0.38 0.25 0.15 0.14 0.12
0.12 0.08 0.10 0.13 0.16 0.27 0.24 0.25 0.29 0.34 0.37 0.35 0.36 0.44 0.46 0.36 0.30 0.22 0.15 0.14 0.17 0.13
0.03 0.07 0.06 0.10 0.12 0.25 0.36 0.34 0.29 0.25 0.24 0.21 0.18 0.15 0.12 0.11 0.11 0.11 0.14 0.17 0.16 0.14
0.01 0.02 0.06 0.09 0.11 0.14 0.15 0.16 0.25 0.20 0.18 0.15 0.12 0.13 0.13 0.13 0.12 0.13 0.16 0.18 0.21 0.28
0.01 0.02 0.04 0.06 0.07 0.11 0.12 0.11 0.11 0.12 0.12 0.11 0.10 0.24 0.20 0.16 0.08 0.17 0.25 0.31 0.34 0.41
0.02 0.02 0.02 0.04 0.04 0.06 0.06 0.06 0.07 0.08 0.08 0.10 0.12 0.34 0.19 0.20 0.11 0.22 0.30 0.30 0.26 0.25
0.02 0.01 0.01 0.02 0.04 0.04 0.04 0.04 0.05 0.08 0.12 0.14 0.26 0.34 0.17 0.19 0.09 0.19 0.29 0.29 0.28 0.27
0.05 0.04 0.02 0.03 0.04 0.04 0.05 0.08 0.08 0.10 0.14 0.15 0.19 0.31 0.18 0.14 0.05 0.17 0.23 0.23 0.27 0.28
0.12 0.07 0.05 0.04 0.05 0.05 0.07 0.12 0.12 0.16 0.18 0.29 0.16 0.35 0.19 0.13 0.03 0.10 0.18 0.20 0.26 0.31
0.15 0.09 0.08 0.06 0.06 0.07 0.09 0.13 0.15 0.16 0.17 0.18 0.18 0.25 0.21 0.13 0.04 0.07 0.13 0.13 0.12 0.13

GFSNIL_prec_precacc24_105.txt.gz
Total_Precipitation_Accumulation
0.00 0.00 0.00 0.00 0.00 0.02 0.09 0.16 0.20 0.17 0.16 0.20 0.23 0.29 0.36 0.35 0.28 0.21 0.20 0.18 0.15 0.20
0.00 0.00 0.00 0.00 0.00 0.01 0.06 0.15 0.23 0.23 0.16 0.17 0.21 0.24 0.34 0.35 0.41 0.37 0.40 0.35 0.43 0.52
0.00 0.00 0.00 0.00 0.00 0.00 0.04 0.15 0.16 0.15 0.16 0.17 0.25 0.23 0.39 0.56 0.68 0.69 0.55 0.49 0.45 0.37
0.00 0.00 0.00 0.00 0.00 0.00 0.03 0.09 0.15 0.15 0.18 0.18 0.25 0.38 0.47 0.62 0.64 0.52 0.36 0.25 0.21 0.18
0.00 0.00 0.00 0.00 0.00 0.00 0.03 0.07 0.13 0.21 0.29 0.26 0.30 0.33 0.38 0.41 0.43 0.38 0.25 0.15 0.14 0.11
0.03 0.02 0.03 0.03 0.02 0.04 0.04 0.09 0.18 0.30 0.36 0.32 0.32 0.39 0.43 0.36 0.29 0.21 0.15 0.13 0.17 0.13
0.02 0.02 0.02 0.05 0.05 0.07 0.10 0.12 0.16 0.18 0.20 0.18 0.14 0.10 0.10 0.11 0.11 0.11 0.13 0.17 0.16 0.14
0.01 0.00 0.02 0.04 0.04 0.06 0.07 0.10 0.16 0.14 0.15 0.12 0.08 0.10 0.11 0.13 0.12 0.12 0.15 0.18 0.21 0.28
0.00 0.00 0.01 0.02 0.04 0.05 0.07 0.08 0.09 0.10 0.10 0.08 0.07 0.19 0.16 0.13 0.08 0.16 0.25 0.31 0.34 0.41
0.01 0.00 0.01 0.02 0.03 0.03 0.04 0.04 0.04 0.05 0.05 0.07 0.08 0.27 0.16 0.18 0.11 0.22 0.30 0.30 0.27 0.26
0.08 0.04 0.01 0.02 0.03 0.02 0.02 0.03 0.04 0.06 0.08 0.11 0.22 0.31 0.16 0.19 0.09 0.20 0.30 0.31 0.31 0.30
0.13 0.13 0.07 0.04 0.03 0.02 0.04 0.06 0.07 0.09 0.13 0.14 0.19 0.31 0.19 0.14 0.06 0.20 0.26 0.25 0.29 0.32
0.17 0.13 0.09 0.08 0.06 0.04 0.06 0.11 0.12 0.16 0.18 0.30 0.16 0.37 0.22 0.15 0.04 0.12 0.20 0.24 0.34 0.44
0.21 0.16 0.12 0.11 0.10 0.08 0.09 0.12 0.15 0.16 0.18 0.19 0.21 0.28 0.26 0.17 0.06 0.08 0.16 0.20 0.21 0.28